Vertical_Velocity
8 9 9 0 8 -1 1 8 4 -5 1 3 -1 5 -1 -1 -0 -2 -2 -2 -1 -2 -1 -3 -3 0 -4 -2 -1 0 -9 1 -1 4 5 3 -6 -8 2 -1 -4 -3 -1 2 -1
2 2 6 8 -1 -2 1 5 3 -6 5 1 4 -1 -1 2 -0 -5 -2 -2 -0 -4 -2 -0 -2 -2 -4 -1 -3 -6 -5 -1 -1 1 0 1 -9 -4 1 2 -1 1 -1 4 3
3 3 6 4 3 3 -4 3 4 -2 2 4 5 -4 -1 -3 -4 -2 -1 -3 -2 -2 -2 -3 -3 -3 -2 -3 -2 -1 -0 -3 -2 -1 -1 5 -5 -6 -4 2 0 -4 -5 -2 -0
12 -2 2 3 3 7 1 4 -3 -0 1 3 2 2 -0 -0 -3 -1 -0 -2 -2 -1 -3 -2 -1 -4 -2 -4 -5 -8 -1 -2 1 -4 -3 -0 -2 -4 -8 14 -0 4 -3 -4 -6
-2 -4 -5 4 2 6 1 7 -1 1 -3 -2 1 -0 -1 -3 -3 -1 -1 -1 -0 0 -1 -3 -4 -4 -3 -5 -8 -5 -3 -4 -2 3 -4 -6 0 -6 -5 6 -2 -1 0 1 -3
32 -2 -2 1 0 4 2 4 -1 7 -1 3 0 0 -2 4 -6 2 -3 -2 2 -4 -4 -2 -1 -4 -4 -5 -5 -4 -2 -3 2 1 -7 -8 2 -20 17 19 2 -6 -1 -5 -6
11 -1 1 -13 2 0 9 -2 2 -3 -0 4 1 -1 -2 -0 -3 2 -2 -2 0 -5 -5 -5 -4 -3 -2 -7 -4 -2 5 -3 4 4 -1 -16 -2 -6 -0 -4 -5 -5 2 -3 -6
-2 -1 -5 3 -0 -3 1 2 -0 1 1 2 -0 0 1 -1 -1 2 -3 -3 -2 -3 -2 -3 -4 -3 -4 -3 1 2 -7 3 10 -10 -3 -20 1 0 6 1 6 7 3 1 -7
-4 1 -3 4 -7 3 4 8 2 6 1 -0 -0 -1 -1 1 1 -1 -2 -5 -4 -2 -2 -3 -4 -2 -1 2 -2 -1 -4 -1 8 -5 -20 -16 1 34 23 -1 -1 2 2 4 0
4 3 -4 6 6 12 2 2 10 7 0 1 -1 2 2 -2 -0 -1 0 -4 -3 -3 -1 -4 -3 -2 2 -5 -2 -4 -3 1 -2 -4 -7 5 -14 3 9 -10 -16 -10 -0 -3 1
-8 -0 -5 13 12 17 1 1 4 3 -0 1 2 1 -2 0 -3 -1 -1 -1 -2 -2 -3 0 -2 1 -4 -4 -3 -1 -3 0 -9 -7 -6 -10 4 -4 -2 -4 9 4 3 2 0
15 -3 3 12 3 13 4 -2 2 -1 0 -0 -3 -1 -0 -1 -2 0 -1 -1 -0 -1 -2 -4 -5 -4 -2 -3 -4 -2 -1 -5 -7 -3 -6 -5 -1 3 2 -0 -8 -6 -4 5 -4
-1 -0 3 9 -1 7 1 -1 -2 0 -2 -1 1 2 -1 -2 1 -1 -2 -2 -4 -1 2 1 3 -2 -1 -2 1 -3 -3 -4 -2 -1 -1 -0 1 -2 -2 -1 2 1 -1 -2 -4
-4 -1 4 5 -7 0 -0 -1 0 1 3 3 -2 -2 1 -2 -1 -3 -0 -1 -0 -4 -0 -1 -3 -4 -1 -0 -1 -0 -3 -2 -2 -2 2 -1 -4 -1 1 0 -2 0 -1 -1 0
-0 -7 -7 -6 2 0 -3 1 -2 0 0 3 0 -3 -2 -0 2 3 -2 -4 -7 -3 -3 -5 -5 -4 -4 -1 -2 -3 -3 -7 -2 -2 -4 2 -1 1 -0 -1 -1 1 3 8 3
-4 -4 -2 -0 -2 -0 1 -1 -1 0 -3 0 -2 -2 -2 3 2 -2 -3 -4 -5 -5 -3 -0 -1 -4 -3 -2 -3 -3 -3 -2 -4 -2 -2 1 5 6 -2 -1 -5 -4 -1 7 6
-5 -2 -1 -3 -1 1 -2 -3 -1 1 -1 0 0 -1 -0 -4 -2 -3 -3 -3 -3 -3 -2 -1 -3 -2 -0 1 -3 1 2 -3 -2 -1 -5 -1 2 2 2 -5 -1 -1 2 2 3
-8 -5 -5 -2 0 3 1 -1 1 1 3 -3 -2 -2 -4 -1 -1 0 -3 -2 -3 -3 -4 -5 0 -1 -3 0 -2 -3 -6 -4 -5 1 2 2 0 -4 -2 -5 -4 -5 -6 -0 2
-3 -5 -4 -5 -3 -2 -2 -3 1 -0 1 1 -0 -3 -6 0 -2 -2 -2 -0 -2 -2 1 2 -3 -2 -3 2 1 -3 -6 -5 3 5 1 -1 0 -1 4 2 1 4 3 5 -1
-0 -4 -3 -4 -3 -1 -2 -2 -1 1 -4 -3 -1 0 -1 -3 -1 -0 -1 -0 -1 -2 -3 -1 1 -0 3 1 -0 -3 2 -3 -2 2 -1 2 -1 -12 0 2 2 2 10 2 11
2 -7 -3 -1 -3 -3 3 -3 -3 -3 -4 -2 -4 -3 -3 -2 -1 -1 -1 2 0 -0 0 -0 -2 -1 2 -4 -1 -0 2 -1 -2 1 -3 4 -2 1 -0 2 16 14 10 14 14
0 2 -3 -1 1 -1 1 -3 2 -4 -3 -2 -3 -3 -3 -2 -0 -5 -5 -2 -1 -2 -3 -3 -1 -2 -3 1 3 -0 0 -4 -0 -2 1 1 -3 2 4 11 1 1 1 -0 -1
1 -2 -2 0 -6 1 1 -6 -6 -7 -1 -3 -3 -3 -4 -5 -5 -5 -3 0 0 -1 -3 -2 -1 -2 -1 -0 -1 -1 1 -2 1 -0 -2 1 2 1 2 2 -2 -1 1 -2 -3
-5 0 -1 -3 -6 -6 -4 -1 -4 -5 -7 -6 -2 -3 -4 -6 -3 -1 -0 0 2 1 -0 0 -3 -2 -2 0 -0 -2 -1 -0 -2 -4 -2 -3 -3 -1 1 0 -2 -3 -3 -0 -1
3 -3 3 5 -2 -4 -0 -4 -9 -9 -9 -3 -5 -6 -5 -2 1 -0 3 2 -0 -0 1 0 -0 -3 -2 1 -0 -1 1 -2 -3 -3 -0 -1 1 3 -5 -5 -3 -2 1 0 2
-5 -7 -3 -2 6 0 -5 0 1 -3 -6 -4 -3 -4 -3 -2 -1 -0 1 1 0 1 -2 -1 -1 -0 -1 0 2 2 1 -1 -3 -1 -3 -3 -0 1 2 1 -4 -3 2 -0 1
2 -1 -2 -2 -4 1 -1 1 -3 -0 1 -3 -3 -4 -3 -3 -1 -1 -2 0 -1 0 -2 -2 -3 -2 1 1 1 0 1 1 1 2 2 3 2 1 -0 1 1 1 1 -0 -3
Height
5619 5627 5635 5643 5651 5659 5669 5679 5684 5689 5696 5702 5707 5712 5717 5719 5723 5726 5731 5734 5735 5736 5737 5739 5739 5738 5740 5741 5742 5743 5745 5748 5749 5750 5754 5756 5757 5758 5761 5764 5765 5768 5772 5776 5780
5599 5608 5618 5627 5635 5646 5656 5666 5673 5678 5685 5692 5699 5703 5708 5711 5715 5719 5723 5725 5726 5728 5729 5731 5731 5732 5732 5733 5734 5734 5737 5737 5738 5739 5741 5743 5745 5745 5748 5754 5757 5759 5761 5765 5769
5588 5593 5602 5613 5623 5632 5644 5656 5662 5669 5675 5684 5691 5695 5699 5704 5708 5711 5713 5717 5720 5719 5721 5722 5723 5724 5724 5724 5725 5726 5728 5726 5727 5727 5728 5733 5734 5735 5738 5745 5748 5749 5751 5753 5757
5579 5585 5593 5602 5612 5622 5633 5644 5652 5661 5667 5677 5683 5687 5692 5696 5702 5704 5706 5708 5711 5712 5713 5713 5714 5715 5716 5715 5716 5717 5717 5716 5716 5715 5716 5717 5721 5723 5726 5732 5731 5735 5737 5740 5743
5570 5577 5585 5593 5602 5614 5623 5635 5645 5652 5659 5669 5676 5680 5685 5690 5694 5697 5699 5701 5703 5703 5703 5704 5705 5706 5706 5706 5706 5707 5706 5706 5706 5704 5701 5703 5707 5712 5722 5712 5712 5714 5719 5725 5728
5565 5570 5577 5588 5596 5607 5618 5627 5637 5648 5653 5663 5669 5675 5680 5685 5687 5691 5693 5694 5696 5695 5695 5695 5696 5696 5697 5696 5697 5697 5696 5694 5693 5689 5690 5690 5695 5700 5707 5696 5698 5703 5706 5709 5714
5559 5567 5575 5584 5592 5602 5612 5621 5633 5642 5651 5658 5664 5669 5673 5678 5682 5684 5685 5687 5687 5687 5688 5688 5688 5688 5688 5687 5686 5685 5687 5684 5678 5674 5675 5671 5687 5692 5679 5676 5683 5686 5688 5692 5699
5561 5566 5572 5579 5590 5600 5610 5620 5629 5638 5646 5653 5659 5664 5668 5673 5676 5679 5678 5679 5682 5681 5681 5681 5681 5680 5678 5677 5676 5675 5674 5672 5665 5659 5656 5657 5677 5672 5663 5661 5666 5670 5673 5678 5684
5559 5564 5568 5575 5590 5598 5607 5617 5627 5636 5642 5649 5655 5661 5666 5670 5672 5673 5674 5676 5676 5675 5674 5673 5672 5671 5671 5669 5668 5665 5662 5657 5652 5644 5642 5644 5655 5654 5642 5636 5643 5651 5656 5661 5668
5561 5563 5567 5572 5585 5598 5607 5616 5626 5634 5641 5647 5654 5661 5665 5667 5668 5669 5670 5670 5669 5668 5668 5666 5665 5664 5663 5661 5660 5656 5652 5646 5638 5632 5630 5627 5630 5625 5622 5616 5623 5631 5638 5644 5653
5561 5562 5567 5575 5586 5600 5608 5617 5627 5635 5641 5648 5654 5658 5662 5664 5667 5667 5667 5666 5664 5663 5661 5659 5658 5657 5657 5656 5653 5650 5647 5641 5631 5626 5622 5615 5611 5606 5601 5598 5606 5609 5616 5626 5635
5565 5569 5575 5585 5592 5601 5611 5619 5627 5637 5643 5650 5654 5657 5661 5664 5665 5665 5665 5664 5660 5657 5653 5652 5652 5652 5650 5652 5651 5648 5644 5639 5633 5627 5619 5615 5611 5606 5599 5593 5590 5591 5597 5608 5617
5574 5581 5589 5596 5601 5606 5616 5624 5631 5638 5645 5651 5654 5658 5661 5664 5664 5664 5663 5660 5657 5654 5651 5651 5651 5652 5653 5653 5650 5647 5643 5639 5635 5629 5623 5618 5614 5608 5601 5592 5584 5578 5581 5590 5601
5590 5594 5599 5605 5612 5617 5624 5630 5636 5642 5648 5653 5656 5659 5660 5663 5664 5663 5662 5662 5660 5658 5656 5656 5656 5655 5654 5652 5648 5644 5641 5636 5632 5628 5623 5618 5614 5608 5602 5595 5588 5582 5580 5582 5589
5607 5609 5612 5616 5621 5626 5633 5637 5641 5646 5651 5655 5656 5659 5661 5664 5665 5665 5665 5665 5664 5663 5663 5661 5659 5657 5655 5651 5647 5643 5639 5635 5630 5625 5620 5616 5611 5608 5603 5598 5593 5589 5585 5586 5589
5623 5624 5626 5629 5632 5636 5640 5643 5647 5652 5652 5655 5658 5660 5663 5664 5666 5668 5668 5668 5667 5666 5665 5663 5661 5658 5655 5652 5647 5644 5640 5633 5628 5624 5620 5615 5611 5607 5603 5601 5598 5595 5592 5591 5593
5635 5637 5638 5640 5642 5645 5647 5650 5653 5654 5657 5659 5660 5662 5666 5668 5670 5671 5670 5669 5670 5670 5667 5664 5660 5657 5654 5651 5648 5644 5640 5634 5627 5624 5621 5617 5613 5609 5606 5604 5603 5601 5601 5600 5602
5644 5646 5649 5649 5651 5653 5655 5657 5658 5659 5660 5662 5664 5667 5669 5672 5673 5673 5672 5671 5670 5669 5667 5664 5662 5660 5656 5654 5650 5645 5641 5635 5631 5627 5623 5620 5618 5616 5612 5610 5609 5606 5605 5607 5611
5658 5657 5657 5659 5659 5661 5662 5662 5662 5663 5664 5666 5668 5670 5673 5675 5676 5675 5674 5674 5672 5672 5670 5668 5666 5664 5661 5657 5652 5646 5643 5640 5637 5633 5629 5625 5624 5620 5618 5616 5614 5613 5613 5616 5619
5671 5667 5666 5666 5666 5668 5669 5668 5668 5668 5669 5670 5672 5675 5678 5679 5679 5678 5677 5676 5675 5674 5674 5673 5670 5667 5665 5660 5654 5651 5649 5645 5641 5637 5635 5632 5629 5626 5624 5622 5620 5620 5622 5624 5628
5678 5675 5674 5673 5673 5673 5675 5677 5675 5675 5675 5676 5678 5680 5682 5681 5681 5680 5681 5681 5680 5679 5678 5677 5675 5673 5667 5665 5659 5658 5654 5649 5647 5644 5642 5639 5636 5633 5632 5631 5631 5631 5632 5635 5639
5690 5685 5681 5679 5679 5678 5680 5683 5681 5682 5681 5682 5683 5684 5684 5684 5685 5685 5686 5686 5685 5685 5684 5681 5678 5676 5673 5668 5664 5660 5658 5655 5653 5652 5649 5647 5647 5645 5643 5642 5641 5642 5643 5643 5646
5702 5697 5691 5687 5686 5685 5687 5688 5688 5689 5688 5688 5689 5690 5690 5690 5691 5691 5690 5690 5690 5689 5688 5684 5681 5678 5676 5674 5668 5665 5663 5659 5659 5657 5657 5656 5655 5653 5651 5649 5649 5648 5650 5653 5655
5714 5709 5704 5700 5695 5694 5694 5693 5694 5696 5697 5697 5697 5697 5698 5697 5697 5696 5695 5695 5693 5691 5689 5686 5684 5682 5680 5676 5674 5672 5669 5667 5665 5664 5663 5662 5661 5661 5659 5657 5656 5658 5659 5659 5660
5720 5720 5716 5711 5707 5704 5703 5702 5701 5701 5703 5704 5704 5703 5703 5703 5702 5701 5700 5698 5696 5693 5692 5690 5688 5687 5685 5682 5681 5679 5677 5674 5672 5670 5670 5668 5667 5666 5665 5664 5663 5663 5664 5665 5665
5727 5724 5723 5722 5718 5715 5714 5712 5710 5710 5709 5709 5710 5708 5707 5707 5706 5705 5704 5702 5700 5698 5696 5694 5693 5691 5689 5687 5685 5684 5682 5681 5679 5677 5676 5675 5674 5672 5669 5669 5671 5671 5670 5670 5670
5734 5730 5728 5727 5726 5725 5722 5720 5719 5717 5716 5714 5712 5711 5711 5711 5710 5709 5707 5705 5704 5703 5702 5700 5698 5695 5693 5691 5690 5689 5687 5685 5683 5681 5680 5678 5678 5676 5675 5674 5673 5673 5673 5674 5674